When you browse on this site, cookies collect data to enhance your experience and personalize the content and advertising you see.
Visit our Privacy Policy to learn more. By continuing to use the site, you agree to this use of cookies and data.
  • In Sweden
  • List of Countries
  • For 7 days
  • Water Temperature
  • Satellite Maps
  • Weather Map
  • Weather Widgets
  • user-avatar
    Login

    Hourly Weather Anakapalle

    Today, 17 December, Monday

    Time Temperature Precipitation Wind Pressure Humidity
    00:00 +19°C° 0 mm 9 mps 744 mmHg 81%
    01:00 +21°C° 0.4 mm 8 mps 744 mmHg 81%
    02:00 +21°C° 0.4 mm 8 mps 744 mmHg 81%
    03:00 +21°C° 0.4 mm 7 mps 744 mmHg 81%
    04:00 +21°C° 0.5 mm 8 mps 743 mmHg 81%
    05:00 +21°C° 0.5 mm 8 mps 743 mmHg 82%
    06:00 +21°C° 0 mm 11 mps 742 mmHg 84%
    07:00 +22°C° 1.8 mm 11 mps 742 mmHg 85%
    08:00 +22°C° 1.8 mm 10 mps 742 mmHg 85%
    09:00 +22°C° 1.8 mm 9 mps 743 mmHg 86%
    10:00 +22°C° 3.5 mm 9 mps 742 mmHg 87%
    11:00 +22°C° 3.5 mm 9 mps 742 mmHg 88%
    12:00 +23°C° 0 mm 4 mps 742 mmHg 82%
    13:00 +23°C° 4.6 mm 5 mps 742 mmHg 85%
    14:00 +22°C° 4.6 mm 6 mps 741 mmHg 88%
    15:00 +22°C° 4.6 mm 7 mps 741 mmHg 91%
    16:00 +22°C° 5.2 mm 6 mps 741 mmHg 91%
    17:00 +23°C° 5.2 mm 6 mps 741 mmHg 91%
    18:00 +23°C° 5.2 mm 5 mps 741 mmHg 91%
    19:00 +23°C° 1.8 mm 5 mps 742 mmHg 91%
    20:00 +23°C° 1.8 mm 5 mps 742 mmHg 91%
    21:00 +23°C° 1.8 mm 5 mps 743 mmHg 91%
    22:00 +23°C° 0.5 mm 5 mps 743 mmHg 91%
    23:00 +22°C° 0.5 mm 5 mps 743 mmHg 92%

    Tomorrow, 18 December, Tuesday

    Time Temperature Precipitation Wind Pressure Humidity
    00:00 +22°C° 0.5 mm 4 mps 743 mmHg 92%
    01:00 +22°C° 0.3 mm 4 mps 743 mmHg 92%
    02:00 +22°C° 0.3 mm 3 mps 743 mmHg 93%
    03:00 +21°C° 0.3 mm 3 mps 742 mmHg 93%
    04:00 +21°C° 0.1 mm 3 mps 743 mmHg 93%
    05:00 +21°C° 0.1 mm 2 mps 743 mmHg 92%
    06:00 +21°C° 0.1 mm 2 mps 743 mmHg 92%
    07:00 +23°C° 0 mm 2 mps 744 mmHg 90%
    08:00 +23°C° 0 mm 2 mps 744 mmHg 88%
    09:00 +23°C° 0 mm 2 mps 745 mmHg 86%
    10:00 +24°C° 0 mm 2 mps 745 mmHg 83%
    11:00 +25°C° 0 mm 2 mps 745 mmHg 81%
    12:00 +25°C° 0 mm 1 mps 745 mmHg 78%
    13:00 +26°C° 0 mm 2 mps 744 mmHg 78%
    14:00 +26°C° 0 mm 2 mps 743 mmHg 78%
    15:00 +26°C° 0 mm 2 mps 743 mmHg 77%
    16:00 +25°C° 0 mm 2 mps 743 mmHg 79%
    17:00 +25°C° 0 mm 2 mps 743 mmHg 81%
    18:00 +24°C° 0 mm 2 mps 744 mmHg 83%
    19:00 +24°C° 0.1 mm 3 mps 744 mmHg 84%
    20:00 +24°C° 0.1 mm 3 mps 745 mmHg 84%
    21:00 +22°C° 0.1 mm 4 mps 745 mmHg 85%
    22:00 +22°C° 0.1 mm 4 mps 745 mmHg 85%
    23:00 +22°C° 0.1 mm 4 mps 745 mmHg 85%

    Day after tomorrow, 19 December, Wednesday

    Time Temperature Precipitation Wind Pressure Humidity
    00:00 +22°C° 0.1 mm 4 mps 745 mmHg 84%
    01:00 +22°C° 0.1 mm 4 mps 745 mmHg 84%
    02:00 +21°C° 0.1 mm 4 mps 744 mmHg 85%
    03:00 +21°C° 0.1 mm 4 mps 744 mmHg 85%
    04:00 +21°C° 0 mm 4 mps 744 mmHg 85%
    05:00 +21°C° 0 mm 4 mps 744 mmHg 85%
    06:00 +20°C° 0 mm 4 mps 744 mmHg 86%
    07:00 +21°C° 0 mm 4 mps 745 mmHg 82%
    08:00 +22°C° 0 mm 4 mps 746 mmHg 79%
    09:00 +23°C° 0 mm 4 mps 747 mmHg 75%
    10:00 +25°C° 0 mm 4 mps 746 mmHg 71%
    11:00 +26°C° 0 mm 4 mps 746 mmHg 67%
    12:00 +28°C° 0 mm 4 mps 746 mmHg 63%
    13:00 +28°C° 0 mm 4 mps 745 mmHg 62%
    14:00 +28°C° 0 mm 4 mps 745 mmHg 62%
    15:00 +28°C° 0 mm 4 mps 744 mmHg 62%
    16:00 +27°C° 0 mm 4 mps 744 mmHg 67%
    17:00 +26°C° 0 mm 4 mps 744 mmHg 72%
    18:00 +25°C° 0 mm 4 mps 745 mmHg 77%
    19:00 +25°C° 0 mm 4 mps 745 mmHg 80%
    20:00 +23°C° 0 mm 4 mps 746 mmHg 82%
    21:00 +23°C° 0 mm 4 mps 747 mmHg 85%
    22:00 +22°C° 0 mm 4 mps 746 mmHg 86%
    23:00 +22°C° 0 mm 3 mps 746 mmHg 86%

    20 December, Thursday

    Time Temperature Precipitation Wind Pressure Humidity
    00:00 +22°C° 0 mm 3 mps 746 mmHg 87%
    01:00 +21°C° 0 mm 3 mps 746 mmHg 87%
    02:00 +21°C° 0 mm 3 mps 745 mmHg 86%
    03:00 +21°C° 0 mm 3 mps 745 mmHg 86%
    04:00 +21°C° 0 mm 4 mps 745 mmHg 86%
    05:00 +20°C° 0 mm 4 mps 745 mmHg 86%
    06:00 +20°C° 0 mm 4 mps 745 mmHg 86%
    07:00 +21°C° 0 mm 4 mps 746 mmHg 81%
    08:00 +22°C° 0 mm 4 mps 746 mmHg 76%
    09:00 +23°C° 0 mm 4 mps 747 mmHg 72%
    10:00 +26°C° 0 mm 4 mps 747 mmHg 67%
    11:00 +27°C° 0 mm 4 mps 747 mmHg 61%
    12:00 +28°C° 0 mm 4 mps 746 mmHg 56%
    13:00 +28°C° 0 mm 4 mps 746 mmHg 55%
    14:00 +29°C° 0 mm 4 mps 745 mmHg 54%
    15:00 +29°C° 0 mm 4 mps 744 mmHg 53%
    16:00 +28°C° 0 mm 4 mps 744 mmHg 59%
    17:00 +26°C° 0 mm 4 mps 744 mmHg 64%
    18:00 +25°C° 0 mm 4 mps 744 mmHg 69%
    19:00 +24°C° 0 mm 3 mps 745 mmHg 71%
    20:00 +24°C° 0 mm 3 mps 745 mmHg 73%
    21:00 +22°C° 0 mm 3 mps 746 mmHg 75%
    22:00 +22°C° 0 mm 3 mps 746 mmHg 75%
    23:00 +22°C° 0 mm 3 mps 746 mmHg 76%

    21 December, Friday

    Time Temperature Precipitation Wind Pressure Humidity
    00:00 +23°C° 0 mm 2 mps 745 mmHg 76%
    01:00 +21°C° 0 mm 3 mps 745 mmHg 76%
    02:00 +21°C° 0 mm 3 mps 745 mmHg 75%
    03:00 +21°C° 0 mm 3 mps 744 mmHg 75%
    04:00 +21°C° 0 mm 3 mps 744 mmHg 75%
    05:00 +21°C° 0 mm 3 mps 744 mmHg 74%
    06:00 +21°C° 0 mm 3 mps 745 mmHg 74%
    07:00 +22°C° 0 mm 3 mps 745 mmHg 70%
    08:00 +24°C° 0 mm 3 mps 746 mmHg 66%
    09:00 +25°C° 0 mm 3 mps 747 mmHg 63%
    10:00 +27°C° 0 mm 3 mps 746 mmHg 59%
    11:00 +28°C° 0 mm 3 mps 746 mmHg 55%
    12:00 +30°C° 0 mm 3 mps 746 mmHg 51%
    13:00 +30°C° 0 mm 4 mps 745 mmHg 52%
    14:00 +30°C° 0 mm 4 mps 744 mmHg 53%
    15:00 +30°C° 0 mm 4 mps 744 mmHg 54%
    16:00 +28°C° 0 mm 4 mps 744 mmHg 59%
    17:00 +27°C° 0 mm 3 mps 744 mmHg 64%
    18:00 +26°C° 0 mm 3 mps 744 mmHg 69%
    19:00 +26°C° 0 mm 3 mps 745 mmHg 70%
    20:00 +25°C° 0 mm 3 mps 745 mmHg 72%
    21:00 +25°C° 0 mm 3 mps 746 mmHg 74%
    22:00 +24°C° 0 mm 3 mps 746 mmHg 75%
    23:00 +24°C° 0 mm 2 mps 745 mmHg 75%

    22 December, Saturday

    Time Temperature Precipitation Wind Pressure Humidity
    00:00 +24°C° 0 mm 2 mps 745 mmHg 76%
    01:00 +23°C° 0 mm 2 mps 745 mmHg 76%
    02:00 +23°C° 0 mm 2 mps 744 mmHg 76%
    03:00 +23°C° 0 mm 2 mps 744 mmHg 76%
    04:00 +23°C° 0 mm 2 mps 744 mmHg 75%
    05:00 +23°C° 0 mm 2 mps 744 mmHg 75%
    06:00 +23°C° 0 mm 2 mps 745 mmHg 74%
    07:00 +24°C° 0 mm 3 mps 745 mmHg 70%
    08:00 +25°C° 0 mm 3 mps 746 mmHg 66%
    09:00 +26°C° 0 mm 3 mps 747 mmHg 62%
    10:00 +27°C° 0 mm 3 mps 746 mmHg 59%
    11:00 +28°C° 0 mm 3 mps 746 mmHg 56%
    12:00 +29°C° 0 mm 4 mps 746 mmHg 53%
    13:00 +29°C° 0 mm 4 mps 745 mmHg 54%
    14:00 +29°C° 0 mm 4 mps 745 mmHg 55%
    15:00 +29°C° 0 mm 4 mps 744 mmHg 57%
    16:00 +28°C° 0 mm 4 mps 744 mmHg 61%
    17:00 +27°C° 0 mm 4 mps 744 mmHg 66%
    18:00 +26°C° 0 mm 4 mps 744 mmHg 71%
    19:00 +25°C° 0 mm 3 mps 745 mmHg 73%
    20:00 +25°C° 0 mm 3 mps 746 mmHg 75%
    21:00 +24°C° 0 mm 3 mps 746 mmHg 77%
    22:00 +24°C° 0 mm 3 mps 746 mmHg 77%
    23:00 +24°C° 0 mm 3 mps 746 mmHg 77%
    Show more